This is the latest recevied weather packets stored in our database for station/object N4DWK. If no packets are shown the sender has not sent any weather packets the latest 10 day(s).
| Time | Temp. | Humidity | Pressure | Rain* | Wind** | Luminosity | Snow |
|---|---|---|---|---|---|---|---|
| 1788558606 | 27.22° C | 76% | 1013.2 hPa | 0 mm | - | 7 W/m² | - |
| 1788558306 | 27.22° C | 74% | 1012.8 hPa | 0 mm | - | 7 W/m² | - |
| 1788558006 | 27.78° C | 71% | 1012.4 hPa | 0 mm | - | 7 W/m² | - |
| 1788557707 | 28.89° C | 68% | 1012.4 hPa | 0 mm | - | 16 W/m² | - |
| 1788557407 | 30° C | 64% | 1012.4 hPa | 0 mm | - | 25 W/m² | - |
| 1788557106 | 32.22° C | 65% | 1012.3 hPa | 0 mm | - | 25 W/m² | - |
| 1788556807 | 33.89° C | 63% | 1012.3 hPa | 0 mm | - | 9 W/m² | - |
| 1788556506 | 34.44° C | 62% | 1011.7 hPa | 0 mm | - | 37 W/m² | - |
| 1788556206 | 34.44° C | 61% | 1011.3 hPa | 0 mm | - | 53 W/m² | - |
| 1788555907 | 34.44° C | 60% | 1011.1 hPa | 0 mm | - | 60 W/m² | - |
| 1788555606 | 35° C | 59% | 1011.3 hPa | 0 mm | - | 54 W/m² | - |
| 1788555306 | 35° C | 60% | 1011.4 hPa | 0 mm | - | 46 W/m² | - |
| 1788555008 | 35° C | 58% | 1011.3 hPa | 0 mm | - | 40 W/m² | - |
| 1788554706 | 35.56° C | 58% | 1011.2 hPa | 0 mm | - | 42 W/m² | - |
| 1788554406 | 35.56° C | 58% | 1011.2 hPa | 0 mm | - | 72 W/m² | - |
| 1788554106 | 35.56° C | 57% | 1011.1 hPa | 0 mm | - | 113 W/m² | - |
| 1788553806 | 35.56° C | 59% | 1011.1 hPa | 0 mm | - | 271 W/m² | - |
| 1788553506 | 35° C | 60% | 1011.1 hPa | 0 mm | - | 327 W/m² | - |
| 1788553209 | 34.44° C | 61% | 1011 hPa | 0 mm | - | 104 W/m² | - |
| 1788552907 | 35° C | 61% | 1010.9 hPa | 0 mm | - | 81 W/m² | - |
| 1788552607 | 35° C | 62% | 1011.1 hPa | 0 mm | - | 51 W/m² | - |
| 1788552306 | 35° C | 61% | 1011.3 hPa | 0 mm | - | 47 W/m² | - |
| 1788552006 | 35.56° C | 62% | 1011.4 hPa | 0 mm | - | 51 W/m² | - |
| 1788551706 | 35.56° C | 59% | 1011.4 hPa | 0 mm | - | 49 W/m² | - |
| 1788551406 | 35.56° C | 58% | 1011.6 hPa | 0 mm | - | 54 W/m² | - |
* Rain latest hour (hover to see other rain measurements)
** Current wind speed in m/s (hover to see current wind gust speed)